EW7469 Weather Reports


Display with metric or nautical units.
time (UTC)temp
F
wind
direction
speed
MPH
gust
MPH
rain 1hr
in
rain 24hr
in
rain mn
in
humidity
%
barometer
mb
20260509174933 97 168 6.0 15.0 0.00 0.00 0.00 28 1012.1
20260509174434 96 250 7.0 15.0 0.00 0.00 0.00 30 1012.1
20260509173959 96 207 6.0 14.0 0.00 0.00 0.00 30 1012.1
20260509173434 96 235 5.0 11.0 0.00 0.00 0.00 31 1012.1
20260509172939 96 161 5.0 13.0 0.00 0.00 0.00 32 1012.2
20260509172435 95 242 4.0 13.0 0.00 0.00 0.00 31 1012.2
20260509171936 95 218 5.0 11.0 0.00 0.00 0.00 33 1012.2
20260509171509 95 219 5.0 14.0 0.00 0.00 0.00 33 1012.2
20260509170932 95 240 4.0 14.0 0.00 0.00 0.00 33 1012.2
20260509170436 95 242 4.0 13.0 0.00 0.00 0.00 34 1012.2
20260509165932 94 237 5.0 13.0 0.00 0.00 0.00 35 1012.6
20260509165437 95 162 5.0 11.0 0.00 0.00 0.00 35 1012.6
20260509164934 95 231 4.0 11.0 0.00 0.00 0.00 36 1012.6
20260509164457 94 139 2.0 11.0 0.00 0.00 0.00 37 1012.8
20260509163934 94 202 2.0 9.0 0.00 0.00 0.00 37 1012.8
20260509163438 93 259 5.0 10.0 0.00 0.00 0.00 38 1012.8
20260509162955 93 231 4.0 13.0 0.00 0.00 0.00 40 1012.8
20260509162435 92 186 4.0 13.0 0.00 0.00 0.00 40 1012.8
20260509161956 92 255 5.0 10.0 0.00 0.00 0.00 38 1012.8
20260509161439 92 254 5.0 11.0 0.00 0.00 0.00 40 1013.1
20260509160936 91 243 3.0 14.0 0.00 0.00 0.00 40 1013.1
20260509160437 91 189 5.0 15.0 0.00 0.00 0.00 41 1013.1
20260509155933 91 216 4.0 13.0 0.00 0.00 0.00 41 1013.3
20260509155436 90 241 6.0 12.0 0.00 0.00 0.00 42 1013.3
20260509154940 90 191 4.0 12.0 0.00 0.00 0.00 41 1013.3
20260509154434 90 170 5.0 11.0 0.00 0.00 0.00 41 1013.3
20260509153938 90 207 5.0 10.0 0.00 0.00 0.00 42 1013.3
20260509153452 89 147 5.0 10.0 0.00 0.00 0.00 45 1013.3
20260509152935 89 222 3.0 12.0 0.00 0.00 0.00 46 1013.7
20260509152451 88 136 6.0 12.0 0.00 0.00 0.00 45 1013.7
20260509151936 88 229 7.0 11.0 0.00 0.00 0.00 47 1013.7
20260509151433 88 127 5.0 11.0 0.00 0.00 0.00 45 1013.6
20260509150935 87 225 4.0 11.0 0.00 0.00 0.00 50 1013.6
20260509150439 87 181 3.0 11.0 0.00 0.00 0.00 51 1013.6
20260509145934 87 179 3.0 8.0 0.00 0.00 0.00 53 1013.7
20260509145455 86 165 4.0 7.0 0.00 0.00 0.00 53 1013.7
20260509144938 86 201 4.0 7.0 0.00 0.00 0.00 55 1013.7
20260509144432 85 200 4.0 8.0 0.00 0.00 0.00 56 1013.7
20260509143934 85 238 4.0 8.0 0.00 0.00 0.00 58 1013.7
20260509143433 84 158 4.0 10.0 0.00 0.00 0.00 60 1013.7
20260509142950 84 154 4.0 10.0 0.00 0.00 0.00 61 1013.5
20260509142435 83 179 4.0 11.0 0.00 0.00 0.00 63 1013.5
20260509141939 83 143 4.0 11.0 0.00 0.00 0.00 64 1013.5
20260509141441 83 252 5.0 12.0 0.00 0.00 0.00 69 1013.4
20260509140934 82 143 6.0 12.0 0.00 0.00 0.00 70 1013.4
20260509140438 82 217 6.0 10.0 0.00 0.00 0.00 72 1013.4
20260509135934 81 210 4.0 7.0 0.00 0.00 0.00 75 1013.7
20260509135435 81 238 3.0 7.0 0.00 0.00 0.00 77 1013.7
20260509134939 81 226 4.0 8.0 0.00 0.00 0.00 78 1013.7
20260509134435 80 175 2.0 8.0 0.00 0.00 0.00 79 1013.8
20260509133932 80 218 4.0 7.0 0.00 0.00 0.00 79 1013.8
20260509133451 80 208 2.0 7.0 0.00 0.00 0.00 81 1013.8
20260509132934 79 150 3.0 7.0 0.00 0.00 0.00 83 1013.7
20260509132439 79 155 4.0 9.0 0.00 0.00 0.00 83 1013.7
20260509131937 79 188 3.0 9.0 0.00 0.00 0.00 84 1013.7
20260509131435 78 173 2.0 7.0 0.00 0.00 0.00 85 1013.5
20260509130938 78 151 5.0 7.0 0.00 0.00 0.00 86 1013.5
20260509130453 78 239 4.0 6.0 0.00 0.00 0.00 87 1013.5
20260509125935 78 169 2.0 5.0 0.00 0.00 0.00 87 1013.4
20260509125439 78 198 3.0 5.0 0.00 0.00 0.00 88 1013.4
20260509124935 77 241 2.0 5.0 0.00 0.00 0.00 89 1013.4
20260509124439 77 231 2.0 5.0 0.00 0.00 0.00 90 1013.3
20260509123948 77 215 1.0 4.0 0.00 0.00 0.00 91 1013.3
20260509123433 77 214 2.0 3.0 0.00 0.00 0.00 93 1013.3
20260509122936 77 218 1.0 5.0 0.00 0.00 0.00 94 1013.2
20260509122434 76 260 1.0 5.0 0.00 0.00 0.00 96 1013.2
20260509121938 76 247 2.0 7.0 0.00 0.00 0.00 96 1013.2
20260509121433 76 160 3.0 7.0 0.00 0.00 0.00 98 1013.2
20260509120936 76 200 2.0 6.0 0.00 0.00 0.00 100 1013.2
20260509120500 75 216 3.0 6.0 0.00 0.00 0.00 100 1013.2
20260509115945 75 254 1.0 4.0 0.00 0.00 0.00 100 1013.1
20260509115438 75 212 1.0 4.0 0.00 0.00 0.00 100 1013.1
20260509114932 75 224 1.0 4.0 0.00 0.00 0.00 100 1013.1
20260509114509 75 242 2.0 5.0 0.00 0.00 0.00 100 1012.9
20260509113944 75 205 2.0 5.0 0.00 0.00 0.00 100 1012.9
20260509113501 75 189 1.0 4.0 0.00 0.00 0.00 100 1012.9
20260509113010 75 204 0.0 4.0 0.00 0.00 0.00 100 1012.7
20260509112504 75 191 0.0 4.0 0.00 0.00 0.00 100 1012.7
20260509111938 75 185 1.0 3.0 0.00 0.00 0.00 100 1012.7
20260509111433 75 174 1.0 3.0 0.00 0.00 0.00 100 1012.7
20260509110949 75 162 1.0 3.0 0.00 0.00 0.00 100 1012.7
20260509110442 75 169 0.0 2.0 0.00 0.00 0.00 100 1012.7
20260509105939 75 169 0.0 2.0 0.00 0.00 0.00 100 1012.6
20260509105455 75 180 1.0 4.0 0.00 0.00 0.00 100 1012.6
20260509104941 75 215 2.0 4.0 0.00 0.00 0.00 100 1012.6
20260509104436 75 166 0.0 4.0 0.00 0.00 0.00 100 1012.6
20260509103932 75 152 1.0 4.0 0.00 0.00 0.00 100 1012.6
20260509103446 75 191 1.0 4.0 0.00 0.00 0.00 100 1012.6
20260509102944 75 201 0.0 3.0 0.00 0.00 0.00 100 1012.6
20260509102438 75 168 1.0 4.0 0.00 0.00 0.00 100 1012.6
20260509101945 75 124 1.0 4.0 0.00 0.00 0.00 100 1012.6
20260509101439 75 178 1.0 4.0 0.00 0.00 0.00 100 1012.7
20260509101000 75 229 1.0 4.0 0.00 0.00 0.00 100 1012.7
20260509100446 75 188 1.0 3.0 0.00 0.00 0.00 100 1012.7
20260509095944 75 204 1.0 3.0 0.00 0.00 0.00 100 1012.5
20260509095459 74 230 2.0 3.0 0.00 0.00 0.00 100 1012.5
20260509094947 74 224 1.0 3.0 0.00 0.00 0.00 100 1012.5
20260509094439 74 191 0.0 2.0 0.00 0.00 0.00 100 1012.4
20260509093936 74 299 0.0 0.0 0.00 0.00 0.00 99 1012.4
20260509093433 74 299 0.0 0.0 0.00 0.00 0.00 99 1012.4
20260509092945 74 299 0.0 0.0 0.00 0.00 0.00 99 1012.4
20260509092438 73 299 0.0 0.0 0.00 0.00 0.00 98 1012.4
20260509091935 73 299 0.0 0.0 0.00 0.00 0.00 98 1012.4
20260509091442 73 299 0.0 0.0 0.00 0.00 0.00 98 1012.5
20260509090940 73 299 0.0 0.0 0.00 0.00 0.00 97 1012.5
20260509090436 73 299 0.0 0.0 0.00 0.00 0.00 97 1012.5
20260509085942 73 299 0.0 0.0 0.00 0.00 0.00 97 1012.6
20260509085437 73 299 0.0 0.0 0.00 0.00 0.00 97 1012.6
20260509084933 73 299 0.0 0.0 0.00 0.00 0.00 97 1012.6
20260509084443 73 299 0.0 0.0 0.00 0.00 0.00 97 1012.7
20260509083936 73 299 0.0 0.0 0.00 0.00 0.00 97 1012.7
20260509083433 73 299 0.0 0.0 0.00 0.00 0.00 97 1012.7
20260509082943 73 299 0.0 0.0 0.00 0.00 0.00 97 1012.7
20260509082440 73 299 0.0 0.0 0.00 0.00 0.00 97 1012.7
20260509081933 73 299 0.0 0.0 0.00 0.00 0.00 97 1012.7
20260509081508 73 299 0.0 0.0 0.00 0.00 0.00 97 1012.8
20260509080943 73 299 0.0 0.0 0.00 0.00 0.00 96 1012.8
20260509080440 73 299 0.0 0.0 0.00 0.00 0.00 96 1012.8
20260509075937 73 299 0.0 0.0 0.00 0.00 0.00 96 1012.8
20260509075445 73 299 0.0 0.0 0.00 0.00 0.00 96 1012.8
20260509074940 73 299 0.0 0.0 0.00 0.00 0.00 95 1012.8
20260509074436 73 299 0.0 0.0 0.00 0.00 0.00 95 1012.8
20260509074004 73 299 0.0 0.0 0.00 0.00 0.00 94 1012.8
20260509073440 73 299 0.0 0.0 0.00 0.00 0.00 94 1012.8
20260509072936 73 299 0.0 0.0 0.00 0.00 0.00 94 1012.9
20260509072453 73 299 0.0 0.0 0.00 0.00 0.00 93 1012.9
20260509072006 73 299 0.0 0.0 0.00 0.00 0.00 93 1012.9
20260509071458 73 299 0.0 0.0 0.00 0.00 0.00 92 1013.0
20260509070953 73 299 0.0 0.0 0.00 0.00 0.00 92 1013.0
20260509070509 73 299 0.0 0.0 0.00 0.00 0.00 92 1013.0
20260509065942 73 299 0.0 0.0 0.00 0.00 0.00 92 1013.0
20260509065438 74 297 0.0 0.0 0.00 0.00 0.00 92 1013.0
20260509064934 74 297 0.0 0.0 0.00 0.00 0.00 92 1013.0
20260509064443 74 297 0.0 0.0 0.00 0.00 0.00 92 1013.1
20260509063938 74 297 0.0 0.0 0.00 0.00 0.00 92 1013.1
20260509063433 74 297 0.0 0.0 0.00 0.00 0.00 92 1013.1
20260509063008 74 297 0.0 0.0 0.00 0.00 0.00 92 1013.2
20260509062440 74 297 0.0 0.0 0.00 0.00 0.00 92 1013.2
20260509061954 74 297 0.0 0.0 0.00 0.00 0.00 92 1013.2
20260509061450 74 297 0.0 0.0 0.00 0.00 0.00 92 1013.3
20260509061004 74 297 0.0 0.0 0.00 0.00 0.00 92 1013.3
20260509060439 74 297 0.0 0.0 0.00 0.00 0.00 92 1013.3
20260509055946 75 297 0.0 2.0 0.00 0.00 0.00 92 1013.5
20260509055442 75 297 0.0 2.0 0.00 0.00 0.00 92 1013.5
20260509054959 75 256 0.0 4.0 0.00 0.00 0.00 92 1013.5
20260509054448 75 256 0.0 4.0 0.00 0.00 0.00 92 1013.5
20260509053943 75 266 2.0 5.0 0.00 0.00 0.00 92 1013.5
20260509053437 75 229 2.0 5.0 0.00 0.00 0.00 92 1013.5
20260509053011 75 242 2.0 5.0 0.00 0.00 0.00 92 1013.8
20260509052503 75 228 2.0 6.0 0.00 0.00 0.00 91 1013.8
20260509051937 75 212 1.0 6.0 0.00 0.00 0.00 91 1013.8
20260509051454 75 222 3.0 5.0 0.00 0.00 0.00 91 1013.8
20260509050940 76 242 2.0 5.0 0.00 0.00 0.00 90 1013.8
20260509050438 76 214 2.0 5.0 0.00 0.00 0.00 90 1013.8
20260509045933 76 290 2.0 5.0 0.00 0.00 0.00 90 1013.7
20260509045446 76 279 2.0 5.0 0.00 0.00 0.00 89 1013.7
20260509044942 76 266 1.0 4.0 0.00 0.00 0.00 89 1013.7
20260509044439 76 205 1.0 3.0 0.00 0.00 0.00 89 1013.5
20260509043949 76 233 1.0 4.0 0.00 0.00 0.00 89 1013.5
20260509043443 77 218 2.0 4.0 0.00 0.00 0.00 88 1013.5
20260509042939 77 203 2.0 4.0 0.00 0.00 0.00 88 1013.5
20260509042508 77 212 2.0 3.0 0.00 0.00 0.00 88 1013.5
20260509042003 77 215 1.0 3.0 0.00 0.00 0.00 87 1013.5
20260509041438 77 188 0.0 2.0 0.00 0.00 0.00 87 1013.4
20260509040947 77 188 1.0 2.0 0.00 0.00 0.00 87 1013.4
20260509040442 77 191 0.0 2.0 0.00 0.00 0.00 87 1013.4
20260509035940 77 188 0.0 2.0 0.00 0.00 0.00 87 1013.6
20260509035445 77 188 0.0 2.0 0.00 0.00 0.00 86 1013.6
20260509034941 77 188 1.0 3.0 0.00 0.00 0.00 86 1013.6
20260509034437 77 131 0.0 3.0 0.00 0.00 0.00 86 1013.5
20260509033933 77 139 0.0 3.0 0.00 0.00 0.00 86 1013.5
20260509033442 77 138 1.0 3.0 0.00 0.00 0.00 86 1013.5
20260509032938 77 136 0.0 3.0 0.00 0.00 0.00 86 1013.4
20260509032512 77 139 1.0 5.0 0.00 0.00 0.00 86 1013.4
20260509031946 77 162 2.0 5.0 0.00 0.00 0.00 86 1013.4
20260509031436 78 170 1.0 4.0 0.00 0.00 0.00 86 1013.6
20260509030937 78 141 1.0 4.0 0.00 0.00 0.00 86 1013.6
20260509030434 78 129 0.0 5.0 0.00 0.00 0.00 86 1013.6
20260509025930 78 185 2.0 5.0 0.00 0.00 0.00 85 1013.5
20260509025450 78 185 1.0 3.0 0.00 0.00 0.00 85 1013.5
20260509024945 78 179 0.0 2.0 0.00 0.00 0.00 85 1013.5
20260509024439 78 178 0.0 6.0 0.00 0.00 0.00 85 1013.5
20260509023951 78 203 1.0 6.0 0.00 0.00 0.00 85 1013.5
20260509023501 78 184 1.0 3.0 0.00 0.00 0.00 85 1013.5
20260509022937 78 159 1.0 3.0 0.00 0.00 0.00 85 1013.3
20260509022446 78 167 0.0 3.0 0.00 0.00 0.00 84 1013.3
20260509021942 78 140 1.0 8.0 0.00 0.00 0.00 84 1013.3
20260509021437 78 191 3.0 8.0 0.00 0.00 0.00 84 1013.3
20260509020947 78 151 2.0 5.0 0.00 0.00 0.00 84 1013.3
20260509020441 78 182 1.0 2.0 0.00 0.00 0.00 83 1013.3
20260509015936 78 146 0.0 2.0 0.00 0.00 0.00 83 1013.2
20260509015446 78 146 0.0 2.0 0.00 0.00 0.00 83 1013.2
20260509014942 78 146 0.0 2.0 0.00 0.00 0.00 83 1013.2
20260509014438 79 144 0.0 3.0 0.00 0.00 0.00 83 1013.1
20260509013934 79 144 0.0 3.0 0.00 0.00 0.00 83 1013.1
20260509013446 79 151 0.0 3.0 0.00 0.00 0.00 83 1013.1
20260509012943 79 166 0.0 3.0 0.00 0.00 0.00 82 1013.0
20260509012440 79 129 0.0 4.0 0.00 0.00 0.00 82 1013.0
20260509011956 79 129 1.0 4.0 0.00 0.00 0.00 82 1013.0
20260509011505 79 152 1.0 4.0 0.00 0.00 0.00 81 1012.9
20260509010952 79 151 1.0 4.0 0.00 0.00 0.00 80 1012.9
20260509010503 79 149 0.0 1.0 0.00 0.00 0.00 80 1012.9
20260509005951 79 149 0.0 2.0 0.00 0.00 0.00 79 1012.8
20260509005501 79 149 0.0 5.0 0.00 0.00 0.00 79 1012.8
20260509004949 79 164 0.0 5.0 0.00 0.00 0.00 79 1012.8
20260509004442 80 154 0.0 3.0 0.00 0.00 0.00 78 1012.7
20260509003937 80 154 1.0 3.0 0.00 0.00 0.00 78 1012.7
20260509003505 80 154 0.0 4.0 0.00 0.00 0.00 78 1012.7
20260509002957 80 153 0.0 4.0 0.00 0.00 0.00 77 1012.7
20260509002446 80 125 0.0 3.0 0.00 0.00 0.00 77 1012.7
20260509001941 80 182 1.0 3.0 0.00 0.00 0.00 76 1012.7
20260509001437 80 163 0.0 3.0 0.00 0.00 0.00 76 1012.4
20260509000947 80 120 1.0 4.0 0.00 0.00 0.00 75 1012.4
20260509000447 80 151 0.0 5.0 0.00 0.00 0.00 75 1012.4
20260508235941 81 29 1.0 5.0 0.00 0.00 0.00 74 1012.2
20260508235435 81 129 3.0 5.0 0.00 0.00 0.00 74 1012.2
20260508234940 81 46 2.0 5.0 0.00 0.00 0.00 74 1012.2
20260508234436 81 135 1.0 7.0 0.00 0.00 0.00 73 1011.9
20260508233941 81 101 2.0 7.0 0.00 0.00 0.00 72 1011.9
20260508233435 81 149 1.0 5.0 0.00 0.00 0.00 71 1011.9
20260508232932 82 174 1.0 5.0 0.00 0.00 0.00 71 1011.8
20260508232440 82 135 1.0 5.0 0.00 0.00 0.00 70 1011.8
20260508231937 82 113 2.0 6.0 0.00 0.00 0.00 69 1011.8
20260508231435 83 115 2.0 5.0 0.00 0.00 0.00 68 1011.8
20260508230941 83 72 1.0 4.0 0.00 0.00 0.00 68 1011.8
20260508230436 83 158 1.0 6.0 0.00 0.00 0.00 67 1011.8
20260508230002 83 108 2.0 6.0 0.00 0.00 0.00 66 1011.7
20260508225438 83 125 0.0 5.0 0.00 0.00 0.00 65 1011.7
20260508224948 83 115 1.0 4.0 0.00 0.00 0.00 66 1011.7
20260508224502 83 50 1.0 6.0 0.00 0.00 0.00 65 1011.6
20260508223938 84 185 3.0 8.0 0.00 0.00 0.00 65 1011.6
20260508223445 84 174 3.0 8.0 0.00 0.00 0.00 63 1011.6
20260508222941 85 136 1.0 5.0 0.00 0.00 0.00 63 1011.7
20260508222436 85 131 0.0 6.0 0.00 0.00 0.00 62 1011.7
20260508221943 85 51 2.0 9.0 0.00 0.00 0.00 62 1011.7
20260508221503 86 130 3.0 9.0 0.00 0.00 0.00 61 1011.7
20260508220938 86 153 3.0 7.0 0.00 0.00 0.00 59 1011.7
20260508220504 86 98 3.0 7.0 0.00 0.00 0.00 59 1011.7
20260508215939 86 83 3.0 7.0 0.00 0.00 0.00 58 1011.6
20260508215435 86 105 2.0 6.0 0.00 0.00 0.00 57 1011.6
20260508214951 87 114 2.0 10.0 0.00 0.00 0.00 57 1011.6
20260508214439 87 34 2.0 10.0 0.00 0.00 0.00 57 1011.9
20260508213934 88 82 3.0 6.0 0.00 0.00 0.00 57 1011.9
20260508213444 88 127 2.0 7.0 0.00 0.00 0.00 56 1011.9
20260508212939 88 86 4.0 7.0 0.00 0.00 0.00 55 1012.1
20260508212435 88 81 1.0 6.0 0.00 0.00 0.00 56 1012.1
20260508211951 88 138 2.0 9.0 0.00 0.00 0.00 54 1012.1
20260508211441 89 86 3.0 9.0 0.00 0.00 0.00 54 1012.1
20260508210938 89 74 2.0 10.0 0.00 0.00 0.00 53 1012.1
20260508210454 89 99 3.0 10.0 0.00 0.00 0.00 53 1012.1
20260508205946 89 79 2.0 6.0 0.00 0.00 0.00 54 1012.2
20260508205444 90 81 2.0 9.0 0.00 0.00 0.00 54 1012.2
20260508204939 90 40 3.0 9.0 0.00 0.00 0.00 54 1012.2
20260508204444 90 39 1.0 7.0 0.00 0.00 0.00 53 1012.2
20260508203941 90 25 2.0 7.0 0.00 0.00 0.00 54 1012.2
20260508203457 90 283 2.0 10.0 0.00 0.00 0.00 53 1012.2
20260508202945 90 124 3.0 6.0 0.00 0.00 0.00 52 1012.3
20260508202442 91 27 2.0 4.0 0.00 0.00 0.00 53 1012.3
20260508201939 90 35 2.0 5.0 0.00 0.00 0.00 55 1012.3
20260508201430 90 73 1.0 10.0 0.00 0.00 0.00 54 1012.7
20260508200948 90 15 2.0 10.0 0.00 0.00 0.00 53 1012.7
20260508200445 91 66 2.0 7.0 0.00 0.00 0.00 53 1012.7
20260508195938 91 55 3.0 6.0 0.00 0.00 0.00 53 1012.8
20260508195500 91 26 3.0 6.0 0.00 0.00 0.00 53 1012.8
20260508194934 90 58 2.0 4.0 0.00 0.00 0.00 52 1012.8
20260508194445 90 77 1.0 5.0 0.00 0.00 0.00 53 1013.2
20260508193938 90 70 2.0 9.0 0.00 0.00 0.00 53 1013.2
20260508193453 90 125 4.0 9.0 0.00 0.00 0.00 53 1013.2
20260508192942 91 68 2.0 7.0 0.00 0.00 0.00 51 1013.3
20260508192436 92 132 2.0 11.0 0.00 0.00 0.00 51 1013.3
20260508191946 92 66 3.0 11.0 0.00 0.00 0.00 50 1013.3
20260508191438 91 71 2.0 5.0 0.00 0.00 0.00 51 1013.4
20260508190936 91 57 3.0 7.0 0.00 0.00 0.00 50 1013.4
20260508190453 91 57 2.0 7.0 0.00 0.00 0.00 50 1013.4
20260508185949 91 106 2.0 7.0 0.00 0.00 0.00 50 1013.7
20260508185442 91 131 3.0 10.0 0.00 0.00 0.00 50 1013.7
20260508184937 91 45 2.0 10.0 0.00 0.00 0.00 51 1013.7
20260508184446 91 101 2.0 7.0 0.00 0.00 0.00 49 1013.8
20260508183943 92 35 2.0 7.0 0.00 0.00 0.00 51 1013.8
20260508183436 91 29 2.0 4.0 0.00 0.00 0.00 51 1013.8
20260508182933 91 19 2.0 9.0 0.00 0.00 0.00 50 1013.9
20260508182510 91 39 1.0 9.0 0.00 0.00 0.00 52 1013.9
20260508181943 91 68 1.0 6.0 0.00 0.00 0.00 50 1013.9
20260508181439 91 30 2.0 6.0 0.00 0.00 0.00 51 1014.0
20260508180948 91 39 2.0 11.0 0.00 0.00 0.00 52 1014.0
20260508180443 91 141 2.0 6.0 0.00 0.00 0.00 50 1014.0
20260508175959 91 103 2.0 6.0 0.00 0.00 0.00 53 1014.2
20260508175500 91 57 3.0 6.0 0.00 0.00 0.00 52 1014.2